Location: Gleizolles
(44.4833°N, 6.7667°E)
Time: 12:40:36
(UTC+00:00)

BEESAT - Visible Passes

Search period start: 04 December 2022 00:00
Search period end: 14 December 2022 00:00
Orbit: 699 x 706 km, 98.5° (Epoch: 03 December)

Date Brightness Start Highest point End Pass type
(mag) Time Alt. Az. Time Alt. Az. Time Alt. Az.
04 Dec ? 05:50:36 10° E 05:52:42 13° ENE 05:54:47 10° NNE visible
07 Dec ? 06:19:12 10° ESE 06:22:54 23° ENE 06:26:37 10° NNE visible
09 Dec ? 06:07:39 10° ESE 06:10:50 18° ENE 06:14:02 10° NNE visible
11 Dec ? 05:56:19 10° E 05:58:48 14° ENE 06:01:16 10° NNE visible
13 Dec ? 05:45:29 10° ENE 05:46:47 11° ENE 05:48:04 10° NE visible
